CANX-5

Last updated on Dec. 13, 2018, 12:09 a.m. UTC

1 40056U 14034D   18346.25470079  .00000102  00000-0  23093-4 0  9997
2 40056  98.2043  94.4833 0015370 125.6285 234.6358 14.74774077239596
UTC
Height (km)
Latitude
Longitude
Inclination
Orbital Period
UTC large
Height (km)
Speed (km/s)
/
Latitude / Longitude
Inclination (degrees)
Orbital Period (minutes)
Azimuth
Elevation
Range (km)
Doppler Factor
iOS Compass Heading
iOS Angle